This is the latest recevied weather packets stored in our database for station/object OM5ZU-10. If no packets are shown the sender has not sent any weather packets the latest 10 day(s).
| Time | Temp. | Humidity | Pressure | Rain* | Wind** | Luminosity | Snow |
|---|---|---|---|---|---|---|---|
| 1788586522 | 21.67° C | 72% | 1015.2 hPa | - | - | - | - |
| 1788585621 | 21.11° C | 72% | 1015.2 hPa | - | - | - | - |
| 1788584721 | 21.67° C | 72% | 1014.2 hPa | - | - | - | - |
| 1788583821 | 21.11° C | 72% | 1014 hPa | - | - | - | - |
| 1788582921 | 21.11° C | 72% | 1013.8 hPa | - | - | - | - |
| 1788582021 | 20° C | 72% | 1013.5 hPa | - | - | - | - |
| 1788581121 | 16.11° C | 72% | 1013.5 hPa | - | - | - | - |
| 1788580221 | 15.56° C | 72% | 1013.2 hPa | - | - | - | - |
| 1788579320 | 15.56° C | 72% | 1012.9 hPa | - | - | - | - |
| 1788578420 | 16.11° C | 72% | 1012.7 hPa | - | - | - | - |
| 1788577520 | 16.11° C | 72% | 1013 hPa | - | - | - | - |
| 1788576620 | 16.67° C | 72% | 1012.8 hPa | - | - | - | - |
| 1788575718 | 16.67° C | 72% | 1012.8 hPa | - | - | - | - |
| 1788574818 | 16.11° C | 72% | 1012.8 hPa | - | - | - | - |
| 1788573918 | 16.11° C | 72% | 1012.8 hPa | - | - | - | - |
| 1788573018 | 15.56° C | 72% | 1012.5 hPa | - | - | - | - |
| 1788572118 | 16.11° C | 72% | 1012.7 hPa | - | - | - | - |
| 1788571218 | 16.11° C | 72% | 1012.5 hPa | - | - | - | - |
| 1788570318 | 16.11° C | 72% | 1012.4 hPa | - | - | - | - |
| 1788569417 | 15.56° C | 72% | 1012.4 hPa | - | - | - | - |
| 1788568517 | 15.56° C | 72% | 1012.2 hPa | - | - | - | - |
| 1788567617 | 15.56° C | 72% | 1012.4 hPa | - | - | - | - |
| 1788566717 | 15.56° C | 72% | 1012.2 hPa | - | - | - | - |
| 1788565817 | 15.56° C | 72% | 1012.1 hPa | - | - | - | - |
| 1788564917 | 16.11° C | 72% | 1012.2 hPa | - | - | - | - |
* Rain since midnight (hover to see other rain measurements)
** Current wind speed in m/s (hover to see current wind gust speed)